Change the Weather History Date:

Sunday, May 26, 2013

  Actual Average Record
Temperature  
Mean Temperature 47 °F -  
Max Temperature 59 °F 69 °F 85 °F (1933)
Min Temperature 37 °F 47 °F 30 °F (1956)
Degree Days  
Heating Degree Days 18    
Moisture  
Dew Point 35 °F    
Average Humidity 63    
Maximum Humidity 89    
Minimum Humidity 33    
Precipitation  
Precipitation 0.00 in - - ()
Sea Level Pressure  
Sea Level Pressure 30.15 in    
Wind  
Wind Speed 9 mph (NW)    
Max Wind Speed 23 mph    
Max Gust Speed 32 mph    
Visibility 10 miles    
Events      
Averages and records for this station are not official NWS values.
T = Trace of Precipitation, MM = Missing Value Source: NWS Daily Summary

Daily Weather History Graph

Daily Weather History Graph

Search for Another Location

Airport or City:

Trip Planner

Search our weather history database for the weather conditions in past years. The results will help you decide how hot, cold, wet, or windy it might be!

Date:

Astronomy

May. 26, 2013 Rise Set
Actual Time 5:34 AM EDT 8:31 PM EDT
Civil Twilight 5:01 AM EDT 9:05 PM EDT
Nautical Twilight 4:18 AM EDT 9:48 PM EDT
Astronomical Twilight 3:28 AM EDT 10:38 PM EDT
Moon 10:16 PM EDT (5/26) 7:01 AM EDT (5/26)
Length of Visible Light 16h 04m
Length of Day
14h 57m
Waning Gibbous, 97% of the Moon is Illuminated
May 26
Waning Gibbous
May 31
Last Quarter
Jun 8
New
Jun 16
First Quarter
Jun 23
Full

Hourly Weather History & Observations

Time (EDT) Temp. Windchill Dew Point Humidity Pressure Visibility Wind Dir Wind Speed Gust Speed Precip Events Conditions
12:56 AM 43.9 °F 40.5 °F 37.9 °F 80% 30.12 in 10.0 mi NNW 5.8 mph - N/A   Overcast
1:56 AM 39.9 °F 37.8 °F 36.9 °F 89% 30.11 in 10.0 mi NW 3.5 mph - N/A   Clear
2:56 AM 39.9 °F 35.8 °F 36.9 °F 89% 30.09 in 10.0 mi NNW 5.8 mph - N/A   Clear
3:56 AM 38.8 °F 35.4 °F 36.0 °F 89% 30.08 in 10.0 mi NW 4.6 mph - N/A   Clear
4:56 AM 37.9 °F 33.5 °F 34.9 °F 89% 30.09 in 10.0 mi NW 5.8 mph - N/A   Clear
5:56 AM 39.9 °F 32.9 °F 34.9 °F 82% 30.09 in 10.0 mi NW 11.5 mph - N/A   Clear
6:24 AM 42.8 °F 37.0 °F 35.6 °F 76% 30.09 in 10.0 mi NW 10.4 mph - N/A   Clear
6:56 AM 43.0 °F 36.8 °F 34.9 °F 73% 30.12 in 10.0 mi NW 11.5 mph - N/A   Clear
7:56 AM 46.9 °F - 36.0 °F 66% 30.13 in 10.0 mi NW 12.7 mph - N/A   Clear
8:56 AM 48.9 °F - 36.0 °F 61% 30.14 in 10.0 mi NW 12.7 mph 20.7 mph N/A   Partly Cloudy
9:56 AM 52.0 °F - 36.9 °F 56% 30.15 in 10.0 mi WNW 20.7 mph - N/A   Scattered Clouds
10:56 AM 54.0 °F - 34.9 °F 49% 30.16 in 10.0 mi NW 19.6 mph 26.5 mph N/A   Scattered Clouds
11:56 AM 55.9 °F - 32.9 °F 42% 30.16 in 10.0 mi NW 21.9 mph 32.2 mph N/A   Scattered Clouds
12:56 PM 56.8 °F - 34.9 °F 44% 30.17 in 10.0 mi WNW 19.6 mph 28.8 mph N/A   Scattered Clouds
1:56 PM 57.9 °F - 32.9 °F 39% 30.17 in 10.0 mi WNW 23.0 mph - N/A   Scattered Clouds
2:56 PM 57.9 °F - 31.1 °F 36% 30.18 in 10.0 mi NNW 19.6 mph 25.3 mph N/A   Scattered Clouds
3:56 PM 57.9 °F - 31.1 °F 36% 30.19 in 10.0 mi NNW 16.1 mph 26.5 mph N/A   Scattered Clouds
4:56 PM 57.9 °F - 32.0 °F 37% 30.19 in 10.0 mi WNW 15.0 mph 20.7 mph N/A   Partly Cloudy
5:56 PM 57.9 °F - 29.1 °F 33% 30.19 in 10.0 mi NNW 15.0 mph 21.9 mph N/A   Partly Cloudy
6:56 PM 56.8 °F - 30.0 °F 36% 30.19 in 10.0 mi NW 10.4 mph - N/A   Clear
7:56 PM 54.0 °F - 32.9 °F 45% 30.18 in 10.0 mi WNW 5.8 mph - N/A   Clear
8:56 PM 46.9 °F - 37.9 °F 71% 30.19 in 10.0 mi Calm Calm - N/A   Clear
9:56 PM 41.0 °F - 36.9 °F 85% 30.21 in 10.0 mi Calm Calm - N/A   Clear
10:56 PM 41.9 °F - 36.0 °F 79% 30.22 in 10.0 mi Calm Calm - N/A   Clear
11:56 PM 38.8 °F - 36.0 °F 89% 30.23 in 10.0 mi Calm Calm - N/A   Clear